COSMOS 2528 DEB

Satellite information

Favourite Embed

Satellite Type and Status

DEBRISIN ORBIT

Key statistics

Satellite COSMOS 2528 DEB at a glance.

Uptime

2556

Days in orbit

Revolutions

≈ 14.0

Per day

Orbit

LEO

Low Earth Orbit

Inclination

67.2

Latest

Satellite identification and parameters

Extended collection of information and parameters for COSMOS 2528 DEB.

Object identification

Identified? True

Debris? True

Object name: COSMOS 2528 DEB

International designator: 2018-082C

Object number (NORAD): 45037

Object ID (CCSDS): 45037

Country: COMMONWEALTH OF INDEPENDENT STATES (CIS)

Current information (Y/N): Y

RCS size: LARGE

Orbital parameters

Period: 102.936 minutes

Inclination: 67.2281 deg

SMA: 7275.649 km

Apoapsis: 907.887 km

Periapsis: 887.14 km

RAAN: 316.62 deg

Eccentricy: 0.0014258

Argument of periapsis: 209.0933 deg

Mean anomaly: 150.9361 deg

Mean motion: 13.98927398 rev/day

Mean motion (dot): 0.00001093 rev/day2

B* drag term: 0.00080789 1/REarth

Two-line elements (TLE)

Creation date: Oct. 23, 2025, 10:16 p.m.

Reference frame: TEME

Reference center: EARTH

Epoch: Oct. 23, 2025, 11:53 a.m. UTC

TLE line 0: 0 COSMOS 2528 DEB

TLE line 1: 1 45037U 18082C 25296.49519550 .00001093 00000-0 80789-3 0 9998

TLE line 2: 2 45037 67.2281 316.6200 0014258 209.0933 150.9361 13.98927398293627

Live tracking on map

Real-time ground track for satellite COSMOS 2528 DEB.

In-orbit conjunctions

A list of the most updated potential collisions computed for object COSMOS 2528 DEB.

Target Orbit TCA Probability of collision Miss distance Type
CZ-6A DEB SSO 2025-05-03 03:35:33 0.0001144211 479.0 (m) DEBRIS

Associated space launch

Lotos-S1 spacecraft is a part of the Liana constellation, designed for orbital electronic intelligence.

COSMOS 2528 DEB was lifted into orbit during the mission ‘Soyuz 2.1B | Lotos-S1 (Kosmos 2528)’, on board a Soyuz 2.1b space rocket.

The launch took place on Oct. 25, 2018, 12:15 a.m. from 43/4 (43R).

For more information about the launch, click the button.

Launch to space Soyuz 2.1B | Lotos-S1 (Kosmos 2528)
Soyuz 2.1B | Lotos-S1 (Kosmos 2528)

Agency: N/A

Status: Launch Successful

Launch date: Oct. 25, 2018, 12:15 a.m. UTC

Rocket: Soyuz 2.1b

Launch pad: 43/4 (43R)

Location: Plesetsk Cosmodrome, Russian Federation

...

Latest news about this satellite

There are no fresh news available about this satellite. Check back as we update our databases every day.


Newsletter sign-up

Weekly statistics, charts and insights to help you stay on top of the space industry.